Wetbulb
65.55 65.39 65.49 65.29 64.92 64.80 64.56 64.03 63.55 63.16 62.57 62.12 62.53 63.22 63.03 62.79 62.59 62.38 61.99 61.90 62.31 62.14 60.86 60.13 61.78 62.26 57.03 52.33 53.82 62.16 68.14 66.86 64.72 61.76 56.21 54.14 50.29 49.17 46.53 47.99 49.22 46.47 48.89 51.78 51.86 51.62 50.83
65.70 65.35 65.17 65.15 64.85 64.60 64.25 63.93 63.50 62.81 62.39 62.25 62.52 62.22 62.00 61.64 61.55 61.52 61.39 61.67 61.90 61.51 60.49 60.00 61.43 61.55 55.74 47.99 58.11 61.28 62.37 59.00 58.92 57.23 54.80 54.34 51.39 52.06 48.70 48.37 46.62 48.73 49.10 49.10 49.88 49.86 49.94
65.58 65.34 65.03 64.96 64.64 64.36 63.92 63.85 63.39 62.46 62.02 61.82 61.94 61.75 61.51 61.04 60.77 60.65 61.03 61.15 61.17 60.39 60.11 60.41 61.62 58.71 52.58 49.61 56.69 57.15 59.26 56.97 57.85 57.52 55.05 56.03 54.46 50.59 49.88 47.57 51.47 50.03 45.81 47.00 48.19 49.11 48.20
65.91 65.44 65.11 64.90 64.63 64.27 63.88 63.65 63.17 62.01 61.53 61.51 61.45 61.21 60.86 60.39 60.27 60.22 60.62 60.48 60.15 59.96 59.70 61.17 61.20 56.26 46.92 57.06 56.01 56.48 56.78 56.08 57.51 57.36 58.00 57.79 56.51 52.94 50.09 50.77 49.38 45.07 43.43 39.07 46.71 48.00 47.75
66.13 65.65 65.23 64.83 64.63 64.24 63.76 63.48 63.05 61.81 61.03 61.12 60.89 60.63 60.30 60.09 59.82 59.98 59.92 60.09 61.36 61.43 59.64 60.37 55.80 53.98 47.83 59.21 53.00 53.37 53.19 53.43 55.82 56.87 57.53 58.94 55.04 49.57 49.63 43.93 40.56 41.47 36.48 39.89 43.72 48.24 46.80
65.51 65.68 65.14 64.83 64.41 64.17 63.90 63.64 63.13 61.68 60.70 60.66 60.25 59.72 59.34 59.24 59.36 59.46 59.55 60.17 58.72 57.20 55.99 54.57 55.88 47.89 50.59 49.27 51.83 52.80 51.90 54.39 52.38 52.87 53.92 52.69 49.26 44.53 43.71 40.80 34.82 38.14 37.59 39.50 39.67 44.85 45.79
64.49 65.47 65.09 64.68 64.33 64.12 63.93 63.55 63.03 61.52 60.35 59.96 59.75 59.20 58.71 58.97 59.05 59.00 56.41 50.85 45.99 47.03 46.19 44.58 46.14 46.84 49.22 51.16 52.31 50.71 53.06 51.73 51.36 48.65 43.26 48.47 43.27 40.30 43.50 44.46 44.30 41.67 39.73 38.28 42.12 45.44 43.52
63.94 64.32 65.24 64.73 64.37 64.15 63.95 63.54 62.86 61.16 60.13 59.60 59.43 58.99 58.53 58.64 58.11 57.76 52.69 46.53 45.58 45.47 39.33 48.06 49.75 49.13 51.29 49.87 47.18 49.64 52.30 46.33 46.70 41.85 44.51 41.57 39.93 46.04 47.80 46.39 43.93 41.38 38.92 38.30 41.73 45.27 43.04
63.92 64.03 64.35 64.95 64.59 64.57 64.05 63.48 62.41 60.36 59.68 59.34 59.09 58.68 58.46 58.43 57.66 54.12 50.43 48.92 51.63 48.79 38.84 47.56 50.02 50.08 49.74 50.52 47.94 46.62 49.59 47.93 44.24 41.87 41.96 37.92 42.80 47.32 46.06 43.25 42.04 40.40 38.15 37.92 38.21 41.50 41.36
63.55 63.70 64.46 64.62 64.59 64.35 63.94 63.52 61.14 59.78 59.17 58.57 58.51 58.34 58.45 57.93 53.86 53.23 49.63 53.84 50.72 49.77 37.72 43.58 47.02 49.34 51.14 51.93 47.10 50.94 50.05 47.83 44.42 41.13 42.41 40.72 45.27 44.04 42.40 41.59 42.42 37.21 42.78 40.93 39.33 35.95 30.67
61.13 60.88 60.59 60.46 60.39 60.04 59.65 59.36 59.00 58.77 58.27 57.90 58.04 57.87 57.78 57.52 50.85 50.74 52.55 52.93 50.84 46.08 30.90 45.39 46.18 51.82 48.20 45.78 45.95 47.08 49.82 46.74 41.43 41.95 39.94 37.62 40.42 40.08 39.07 40.19 42.36 38.33 41.64 39.14 38.08 33.90 30.86
59.49 59.21 58.72 58.37 58.21 58.12 58.51 58.42 58.49 58.57 58.42 57.80 57.51 57.49 57.39 54.49 52.26 52.35 53.91 54.07 49.54 37.93 33.40 41.93 46.09 44.86 43.44 44.77 45.21 47.04 45.33 46.43 45.43 40.98 40.45 39.16 44.01 41.92 39.58 41.76 41.32 41.50 38.48 36.85 35.19 31.76 23.33
58.01 57.59 57.23 57.04 56.98 56.96 56.89 56.96 57.13 57.45 57.99 57.65 56.88 57.07 56.28 56.92 48.87 52.98 53.44 48.68 36.20 33.20 44.04 40.07 41.69 43.93 41.76 41.31 41.65 42.38 40.29 37.55 35.09 31.46 30.88 36.97 38.82 40.43 41.47 36.29 38.54 36.45 31.03 22.32 22.07 22.84 23.52
57.32 56.77 56.41 56.16 56.14 56.36 57.11 57.53 57.86 58.07 58.04 57.49 56.52 56.41 55.96 55.36 52.50 51.66 49.53 40.69 31.40 40.53 39.25 43.75 42.16 41.43 37.66 39.51 39.46 40.05 37.63 34.67 38.69 35.96 31.11 28.40 27.81 36.04 39.91 35.44 32.27 32.00 30.15 22.22 18.69 19.45 22.22
57.03 56.38 55.77 55.51 55.70 55.83 55.89 56.18 56.59 56.91 57.01 56.36 55.32 52.03 52.18 50.74 52.61 51.13 43.75 32.76 33.37 38.03 41.70 39.69 39.37 34.43 34.95 39.10 37.48 36.93 34.60 34.77 37.11 36.85 29.90 28.43 29.22 39.21 40.15 38.78 35.98 31.35 26.53 32.92 24.69 26.57 21.87
56.61 56.03 55.31 55.16 54.94 54.90 55.22 55.55 55.95 55.67 55.66 55.59 49.49 48.03 46.23 51.40 51.63 47.32 38.92 36.76 37.88 42.18 42.30 40.78 33.24 36.30 31.73 34.36 34.08 33.46 33.25 37.68 37.16 38.29 36.82 32.22 26.47 35.44 38.30 39.18 37.60 32.51 35.48 26.46 24.25 18.73 17.30
56.11 55.43 55.03 54.72 54.44 54.34 54.42 54.71 54.77 54.18 54.08 54.37 48.86 41.96 46.85 50.77 48.01 41.02 33.01 35.02 40.81 43.64 42.96 38.47 35.69 34.50 34.38 33.05 33.28 31.85 33.45 35.69 37.91 36.99 37.35 33.23 29.82 29.91 34.21 31.07 29.53 30.74 28.55 29.21 29.67 26.79 21.18
55.71 55.17 54.69 54.45 54.22 53.99 54.11 54.28 54.28 53.73 53.00 52.19 45.89 37.33 47.60 47.68 36.32 36.43 33.49 39.35 42.86 41.12 42.31 40.31 39.70 37.96 35.16 34.98 32.63 32.27 32.57 34.86 39.16 38.08 32.31 33.52 29.81 24.63 28.31 35.02 36.05 30.90 27.33 27.21 20.49 16.46 25.11
55.11 54.99 54.65 54.30 53.78 53.43 53.25 53.11 52.94 53.17 52.20 46.68 42.44 40.15 46.71 44.81 30.09 31.64 37.46 39.84 40.85 39.63 39.22 38.39 36.66 38.32 38.08 33.91 29.69 34.32 35.52 40.12 39.87 37.46 33.26 33.95 25.42 17.33 21.13 25.29 30.34 28.30 29.90 29.26 27.80 25.52 16.94
54.01 54.12 53.50 53.13 52.48 52.02 51.46 50.99 51.03 51.54 52.03 47.08 41.31 33.39 39.57 40.02 38.29 33.47 33.71 34.91 35.14 39.87 39.45 39.47 38.07 38.35 35.26 32.30 34.47 32.58 33.85 38.03 39.94 38.89 40.66 35.85 26.54 22.38 18.86 21.82 24.18 24.58 27.56 27.97 26.51 20.51 17.60
52.58 52.41 52.79 52.32 51.32 50.81 50.47 50.45 50.13 50.27 51.28 46.74 41.52 36.94 39.23 27.94 31.56 35.28 33.10 33.58 32.08 32.12 37.61 37.48 34.17 35.91 33.07 24.93 29.46 29.56 32.74 33.80 36.34 38.58 36.15 31.71 24.92 26.14 27.57 28.75 28.74 27.39 27.12 27.71 24.23 25.87 22.48
51.94 52.02 51.92 51.30 50.68 50.44 50.15 50.24 49.98 50.42 51.06 44.36 35.98 34.81 35.84 35.11 35.69 32.40 31.31 30.55 31.83 33.30 33.05 32.05 32.24 32.97 31.74 27.97 30.47 29.04 31.40 31.19 30.02 32.03 30.37 31.84 24.56 26.05 24.45 28.28 27.92 25.58 27.88 28.85 28.11 27.68 26.87
51.53 51.06 51.21 50.87 50.33 49.99 49.99 50.04 49.70 50.53 47.85 39.79 40.60 42.49 37.18 35.40 33.40 27.35 26.55 31.54 32.75 33.23 33.53 34.64 32.86 30.33 28.89 30.97 33.20 33.50 34.75 33.56 32.64 30.51 29.04 27.27 27.18 22.54 19.27 25.43 24.00 17.79 23.65 24.31 25.04 27.25 26.18
51.33 50.94 50.70 50.62 50.06 49.52 49.68 49.51 49.05 49.34 48.29 40.32 39.10 37.26 31.08 23.09 28.30 28.85 33.54 33.18 32.03 32.63 31.32 34.71 32.72 28.64 33.75 38.72 37.08 34.84 33.38 33.78 33.31 32.46 32.65 26.53 26.25 26.25 22.19 21.04 11.55 23.12 29.81 29.05 26.18 27.98 28.53
50.08 50.63 50.04 49.80 50.02 49.16 48.99 49.22 48.72 48.23 49.08 42.20 41.52 37.74 31.45 20.66 29.91 31.13 32.25 31.42 31.32 31.34 30.77 32.05 35.01 35.85 37.60 34.13 23.16 22.31 22.28 24.43 28.29 30.64 29.43 30.67 27.72 24.12 19.79 16.05 20.32 25.23 28.41 26.85 23.80 24.54 30.45
49.39 49.40 49.18 49.58 49.84 48.85 48.53 48.50 48.21 47.88 48.11 42.75 40.63 41.23 36.18 25.66 23.21 33.90 30.94 30.94 24.93 25.63 27.23 31.88 34.67 36.97 35.62 30.37 21.33 11.65 14.22 20.14 20.05 24.15 29.96 28.92 29.43 26.16 22.59 15.49 13.65 23.56 30.03 32.84 30.51 21.10 32.99
48.63 48.77 49.37 49.40 48.73 48.32 48.39 47.81 47.88 47.88 47.39 41.84 40.07 42.08 36.57 25.98 32.27 33.27 26.33 26.80 31.28 26.85 21.43 28.28 29.86 29.74 31.93 17.82 17.87 12.36 14.97 24.48 17.91 18.80 19.49 21.87 21.96 18.68 18.15 19.66 21.66 30.05 32.96 33.06 18.65 21.53 32.53
48.58 48.65 48.60 48.38 48.05 47.67 47.63 47.50 46.94 46.76 46.94 41.34 39.37 41.84 36.50 32.26 32.42 35.61 36.00 30.35 30.24 28.12 22.86 27.23 23.70 27.34 23.23 23.42 17.45 19.71 19.61 22.98 20.73 22.92 21.48 21.59 17.76 11.06 16.68 18.13 15.50 33.55 30.72 23.70 28.59 31.79 32.83
47.31 47.05 46.80 46.68 46.63 46.50 46.43 46.34 46.58 46.50 46.29 44.62 36.60 42.02 41.45 32.63 31.34 37.20 37.85 38.45 36.57 35.33 30.00 27.75 25.30 26.41 25.62 18.22 19.61 21.06 19.97 21.66 19.26 14.84 28.99 23.09 23.05 21.58 20.96 20.82 31.75 31.80 31.25 34.38 34.27 31.91 31.85
MSLP
1021.72 1021.65 1021.54 1021.46 1021.36 1021.23 1021.08 1020.87 1020.62 1020.35 1020.01 1019.61 1019.15 1018.70 1018.21 1017.67 1017.06 1016.39 1015.81 1015.26 1014.70 1014.03 1013.68 1013.33 1013.03 1012.75 1012.46 1012.09 1011.55 1010.95 1011.02 1010.94 1010.92 1010.81 1010.74 1010.68 1010.68 1010.79 1010.91 1010.78 1010.47 1010.36 1010.39 1010.11 1009.81 1009.51 1009.53
1021.72 1021.70 1021.62 1021.52 1021.39 1021.24 1021.08 1020.93 1020.75 1020.47 1020.11 1019.67 1019.20 1018.68 1018.07 1017.47 1016.75 1016.03 1015.42 1014.79 1014.32 1013.74 1013.51 1013.29 1013.01 1012.81 1012.66 1011.89 1011.00 1010.84 1010.89 1010.91 1010.76 1010.73 1010.68 1010.65 1010.86 1010.80 1010.90 1010.84 1010.93 1010.57 1010.44 1010.24 1009.82 1009.44 1009.38
1021.68 1021.64 1021.58 1021.49 1021.40 1021.27 1021.11 1020.91 1020.70 1020.45 1020.10 1019.67 1019.17 1018.60 1017.97 1017.28 1016.57 1015.76 1015.07 1014.31 1013.85 1013.48 1013.33 1013.24 1013.16 1012.92 1012.33 1011.72 1010.92 1010.83 1010.79 1010.76 1010.74 1010.75 1010.81 1010.82 1010.84 1011.08 1011.24 1011.14 1010.83 1010.72 1010.81 1010.35 1009.41 1008.85 1009.26
1021.60 1021.60 1021.56 1021.50 1021.42 1021.31 1021.17 1020.96 1020.73 1020.51 1020.23 1019.80 1019.30 1018.69 1018.03 1017.30 1016.44 1015.44 1014.58 1013.89 1013.22 1013.00 1013.11 1013.18 1013.15 1012.86 1012.15 1011.16 1011.14 1011.04 1010.83 1010.79 1010.65 1010.63 1010.74 1010.74 1010.78 1011.09 1011.28 1011.15 1011.06 1011.09 1011.19 1010.94 1009.53 1009.09 1009.35
1021.47 1021.50 1021.50 1021.45 1021.40 1021.35 1021.23 1021.03 1020.84 1020.64 1020.36 1019.98 1019.48 1018.89 1018.18 1017.41 1016.49 1015.35 1013.99 1013.29 1012.37 1012.51 1012.92 1013.00 1013.09 1012.75 1012.05 1011.31 1011.39 1011.34 1011.16 1011.10 1010.84 1010.75 1010.76 1010.81 1011.03 1011.43 1011.48 1011.88 1012.13 1011.64 1011.62 1011.02 1010.06 1009.28 1009.42
1021.51 1021.43 1021.44 1021.43 1021.42 1021.38 1021.25 1021.06 1020.92 1020.76 1020.50 1020.12 1019.59 1018.97 1018.25 1017.48 1016.71 1015.71 1014.13 1013.00 1012.65 1012.51 1012.90 1012.79 1012.61 1012.76 1012.08 1012.17 1012.01 1011.73 1011.37 1011.24 1011.24 1011.16 1011.22 1011.37 1011.64 1011.97 1012.33 1012.69 1012.87 1012.41 1012.02 1011.48 1010.98 1010.05 1009.83
1021.53 1021.41 1021.43 1021.44 1021.43 1021.38 1021.28 1021.17 1021.06 1020.91 1020.65 1020.25 1019.71 1019.05 1018.29 1017.53 1016.78 1016.18 1014.84 1013.67 1014.29 1013.83 1014.34 1014.72 1014.17 1013.55 1012.93 1012.53 1011.92 1011.63 1011.35 1011.37 1011.39 1011.56 1011.82 1011.78 1012.44 1012.60 1012.45 1012.50 1012.46 1012.38 1012.20 1011.96 1011.09 1010.56 1010.28
1021.50 1021.43 1021.35 1021.36 1021.41 1021.38 1021.28 1021.18 1021.10 1020.95 1020.71 1020.34 1019.83 1019.20 1018.39 1017.62 1016.88 1016.58 1016.01 1016.67 1017.79 1018.17 1016.84 1014.70 1013.82 1013.43 1012.90 1012.75 1012.37 1011.75 1011.41 1011.80 1011.81 1012.05 1012.07 1012.40 1012.28 1011.64 1011.73 1011.74 1011.86 1012.17 1012.18 1011.72 1010.64 1010.47 1010.49
1021.49 1021.43 1021.30 1021.31 1021.33 1021.28 1021.15 1021.07 1021.02 1020.91 1020.65 1020.33 1019.89 1019.34 1018.49 1017.47 1016.75 1016.70 1017.01 1017.44 1017.47 1017.65 1017.58 1014.67 1013.57 1013.03 1012.79 1012.76 1012.38 1012.14 1012.00 1012.01 1012.10 1012.35 1012.44 1012.73 1011.88 1011.52 1011.71 1011.79 1011.98 1012.20 1012.34 1012.02 1011.86 1011.13 1010.98
1021.66 1021.57 1021.37 1021.31 1021.30 1021.27 1021.15 1021.05 1021.08 1021.02 1020.73 1020.41 1019.98 1019.41 1018.69 1017.81 1017.05 1017.16 1017.43 1017.41 1017.27 1017.45 1017.00 1014.84 1013.48 1012.85 1012.73 1012.53 1012.54 1012.16 1012.13 1012.48 1012.58 1012.64 1012.70 1012.63 1011.88 1012.07 1012.19 1012.35 1012.35 1012.01 1012.35 1012.51 1012.39 1012.56 1012.32
1022.16 1022.07 1021.98 1021.89 1021.79 1021.72 1021.55 1021.41 1021.35 1021.17 1020.80 1020.44 1020.06 1019.59 1019.02 1018.50 1018.46 1017.97 1017.94 1017.30 1017.26 1017.61 1016.28 1014.24 1013.20 1012.58 1012.45 1012.74 1012.49 1012.33 1012.16 1012.32 1012.87 1013.10 1013.52 1013.37 1012.95 1012.62 1012.67 1012.58 1012.51 1012.59 1012.95 1013.12 1013.19 1013.54 1013.47
1022.61 1022.55 1022.44 1022.34 1022.20 1022.06 1021.89 1021.64 1021.44 1021.18 1020.84 1020.50 1020.10 1019.78 1019.41 1018.72 1018.66 1018.11 1017.44 1016.87 1017.10 1017.24 1015.17 1013.87 1013.18 1012.96 1013.09 1012.93 1012.66 1012.54 1012.78 1012.90 1013.09 1013.42 1013.60 1013.79 1013.43 1013.23 1013.46 1013.24 1013.44 1013.33 1013.64 1013.80 1013.93 1014.50 1014.27
1023.08 1023.03 1022.93 1022.79 1022.65 1022.44 1022.18 1021.96 1021.60 1021.24 1020.93 1020.57 1020.11 1019.79 1019.64 1019.22 1019.03 1018.07 1017.40 1017.15 1017.38 1016.37 1014.44 1014.74 1014.12 1013.99 1014.08 1013.78 1013.33 1013.16 1013.70 1014.15 1014.76 1014.82 1014.77 1014.72 1013.78 1013.85 1014.10 1014.03 1014.29 1014.79 1015.51 1015.98 1015.74 1015.96 1015.19
1023.38 1023.36 1023.33 1023.26 1023.08 1022.83 1022.55 1022.21 1021.84 1021.40 1021.01 1020.58 1020.14 1019.90 1019.30 1019.11 1018.76 1018.25 1017.91 1017.92 1017.60 1016.52 1016.07 1015.77 1015.40 1015.01 1015.06 1014.84 1014.72 1014.70 1015.04 1015.60 1015.66 1016.08 1016.30 1016.05 1015.03 1015.11 1015.46 1015.63 1015.93 1016.09 1016.68 1018.02 1017.50 1017.52 1016.60
1023.66 1023.69 1023.66 1023.58 1023.47 1023.20 1022.84 1022.48 1022.09 1021.64 1021.18 1020.65 1019.93 1019.71 1019.74 1019.45 1018.81 1018.55 1018.96 1018.98 1018.48 1017.94 1017.57 1017.17 1016.39 1016.26 1016.27 1016.58 1016.95 1016.65 1016.84 1016.89 1017.11 1017.34 1017.92 1017.74 1016.69 1015.64 1016.08 1016.52 1016.96 1016.65 1017.16 1017.54 1018.19 1017.81 1017.63
1023.92 1023.95 1023.92 1023.83 1023.64 1023.41 1023.11 1022.71 1022.27 1021.84 1021.43 1020.95 1020.78 1020.26 1020.35 1019.50 1019.11 1019.30 1019.91 1019.69 1019.18 1019.06 1018.68 1018.37 1018.48 1018.42 1018.82 1018.86 1018.83 1018.64 1018.45 1018.36 1018.63 1018.96 1018.79 1019.35 1018.26 1017.72 1017.56 1017.55 1017.39 1017.65 1017.84 1018.01 1018.71 1018.97 1018.18
1024.07 1024.12 1024.09 1024.03 1023.87 1023.68 1023.33 1023.06 1022.54 1021.90 1021.15 1020.84 1021.12 1020.98 1020.58 1019.63 1019.56 1020.27 1021.06 1020.46 1019.92 1019.79 1019.71 1019.77 1019.88 1020.07 1020.10 1020.42 1020.47 1020.40 1019.94 1020.02 1019.81 1019.90 1019.84 1020.12 1020.05 1019.13 1018.83 1018.63 1018.57 1018.23 1018.59 1018.97 1019.43 1020.31 1019.41
1024.11 1024.24 1024.28 1024.22 1024.11 1023.92 1023.64 1023.16 1022.83 1022.24 1021.19 1020.63 1021.40 1021.62 1020.79 1020.02 1020.93 1021.33 1021.64 1020.94 1020.77 1020.59 1020.49 1020.67 1020.61 1020.94 1021.16 1021.48 1021.43 1021.42 1020.79 1020.60 1020.76 1020.80 1020.98 1021.16 1021.08 1021.05 1020.39 1019.41 1019.01 1019.00 1019.26 1019.95 1020.80 1021.00 1020.58
1024.06 1024.24 1024.23 1024.26 1024.26 1024.07 1023.82 1023.45 1023.15 1022.77 1022.43 1022.59 1022.51 1022.29 1021.22 1020.90 1022.58 1023.16 1022.68 1022.12 1022.02 1021.92 1021.82 1021.88 1021.99 1022.09 1022.26 1022.56 1022.69 1021.99 1021.56 1021.26 1021.12 1021.34 1021.57 1021.82 1022.10 1022.50 1021.52 1020.59 1020.08 1020.25 1020.18 1020.54 1021.10 1021.40 1021.06
1024.23 1024.30 1024.56 1024.55 1024.39 1024.20 1024.09 1023.74 1023.42 1023.04 1022.72 1022.68 1022.97 1023.23 1023.10 1023.21 1024.04 1024.28 1024.39 1024.03 1023.42 1023.17 1023.02 1022.92 1023.04 1022.98 1023.16 1023.37 1023.34 1022.90 1022.47 1021.93 1021.78 1021.71 1021.87 1022.57 1023.04 1023.48 1023.18 1022.07 1021.70 1021.07 1020.43 1020.60 1021.00 1021.33 1020.67
1024.45 1024.59 1024.83 1024.77 1024.67 1024.49 1024.32 1024.08 1023.78 1023.23 1022.76 1022.86 1023.59 1024.45 1024.72 1025.53 1025.90 1026.02 1025.79 1025.50 1024.79 1024.29 1023.80 1023.78 1023.79 1023.80 1024.06 1024.23 1023.88 1023.59 1023.25 1022.76 1022.28 1021.95 1022.23 1023.01 1023.56 1023.53 1022.83 1022.24 1021.62 1020.98 1020.25 1019.80 1020.19 1019.76 1020.07
1024.50 1024.63 1024.87 1025.04 1024.91 1024.81 1024.63 1024.42 1024.25 1023.51 1022.61 1023.12 1024.20 1024.82 1025.58 1026.44 1026.78 1026.88 1026.37 1026.27 1025.36 1024.72 1024.51 1024.19 1024.40 1024.64 1024.86 1025.01 1024.88 1024.28 1024.08 1023.98 1023.56 1022.92 1023.45 1023.72 1023.55 1023.54 1022.54 1022.07 1021.19 1020.12 1019.29 1018.72 1018.49 1018.43 1018.41
1024.71 1024.73 1024.98 1025.16 1025.26 1025.14 1024.97 1024.85 1024.57 1024.10 1023.30 1024.11 1024.42 1024.49 1025.31 1026.78 1026.98 1027.02 1026.71 1025.83 1025.23 1024.86 1024.55 1024.34 1024.41 1024.61 1024.70 1024.64 1024.42 1024.19 1024.00 1023.87 1023.63 1023.38 1023.39 1023.72 1023.71 1023.74 1022.31 1021.86 1020.73 1019.72 1018.21 1017.63 1017.46 1017.07 1016.80
1024.82 1024.79 1025.06 1025.30 1025.48 1025.45 1025.26 1025.17 1025.07 1024.89 1024.74 1025.05 1025.09 1025.28 1026.18 1027.05 1027.08 1026.85 1026.19 1025.75 1025.41 1025.00 1024.82 1024.66 1024.44 1024.53 1024.77 1024.41 1024.27 1023.99 1023.68 1023.21 1022.77 1022.11 1022.57 1022.92 1023.35 1023.78 1022.73 1022.09 1020.56 1018.54 1017.45 1016.90 1016.80 1016.44 1016.00
1024.95 1024.84 1025.22 1025.33 1025.44 1025.67 1025.75 1025.68 1025.55 1025.43 1025.30 1025.36 1025.53 1026.01 1026.67 1027.22 1027.09 1026.75 1026.23 1025.80 1025.44 1025.19 1025.02 1024.89 1024.86 1025.13 1024.97 1025.22 1025.40 1025.09 1024.34 1023.65 1022.25 1021.48 1021.51 1021.98 1022.93 1023.26 1023.03 1022.16 1020.18 1018.29 1016.63 1016.33 1016.32 1016.06 1015.54
1025.08 1025.11 1025.41 1025.66 1025.69 1025.63 1025.89 1026.11 1025.99 1025.89 1025.49 1025.64 1026.03 1026.00 1026.67 1027.16 1026.83 1026.49 1026.30 1026.06 1026.07 1026.13 1026.00 1025.63 1025.43 1025.23 1025.48 1026.30 1026.93 1026.59 1025.94 1024.63 1023.21 1021.94 1021.51 1022.15 1022.62 1023.46 1023.05 1022.25 1020.46 1017.64 1016.69 1016.12 1016.12 1016.07 1015.60
1025.13 1025.20 1025.37 1025.71 1025.85 1025.87 1026.03 1026.31 1026.43 1026.35 1026.04 1026.25 1026.37 1026.15 1026.83 1027.59 1026.73 1026.54 1026.23 1026.16 1026.05 1026.39 1026.87 1026.36 1026.09 1026.01 1026.46 1027.27 1027.86 1027.61 1026.29 1024.81 1023.96 1022.93 1022.72 1023.15 1023.30 1023.28 1023.06 1021.85 1020.06 1017.64 1016.51 1016.13 1016.41 1016.66 1015.61
1025.21 1025.59 1025.85 1026.05 1026.10 1026.14 1026.20 1026.41 1026.44 1026.52 1026.40 1026.69 1026.93 1026.57 1026.95 1027.53 1026.99 1026.32 1026.11 1026.05 1026.10 1026.38 1026.73 1026.54 1026.89 1026.73 1027.15 1027.83 1028.29 1027.73 1026.53 1025.75 1024.76 1023.96 1023.29 1023.05 1023.50 1023.41 1022.69 1021.74 1019.68 1017.10 1016.68 1016.44 1015.98 1015.65 1015.49
1025.48 1025.74 1026.13 1026.38 1026.52 1026.60 1026.52 1026.52 1026.55 1026.66 1026.57 1026.45 1027.23 1027.12 1026.90 1027.52 1026.96 1026.09 1025.67 1025.48 1025.55 1025.66 1026.36 1026.45 1026.97 1027.01 1027.05 1027.84 1028.35 1028.21 1027.77 1026.84 1025.83 1024.67 1023.07 1023.08 1023.23 1022.63 1021.48 1019.76 1017.92 1017.09 1016.74 1015.96 1015.52 1015.46 1015.32
Wind_Speed
6 7 7 7 7 8 8 9 10 11 13 15 15 15 17 18 20 20 20 19 19 20 17 15 12 11 4 3 2 4 4 6 3 4 4 4 4 3 3 4 6 3 4 8 7 7 5
5 5 6 6 7 7 8 9 9 11 12 14 15 17 18 19 20 22 22 20 19 19 14 12 10 10 2 3 3 6 5 4 3 3 5 2 3 4 3 4 1 4 4 7 7 11 7
4 5 5 5 6 7 8 9 10 11 13 14 16 18 19 21 23 24 23 22 18 16 11 8 8 4 2 3 3 2 3 1 2 3 4 4 4 5 5 6 3 4 6 8 11 11 8
3 4 4 4 6 7 8 9 10 11 13 15 17 18 20 21 23 25 25 23 19 12 7 7 5 2 2 2 3 3 4 4 4 3 2 3 3 2 2 3 7 4 1 3 7 4 1
4 3 4 5 5 6 7 8 10 11 12 15 17 18 20 21 23 25 28 26 15 2 4 5 2 0 1 1 3 6 5 4 2 1 2 3 1 3 5 1 5 3 3 5 7 5 3
9 3 4 5 5 6 7 8 10 11 12 15 16 17 19 21 23 25 28 20 6 2 2 3 4 4 5 3 4 6 4 3 3 5 3 1 0 1 4 4 3 6 6 3 6 4 7
7 6 4 5 5 6 7 7 8 10 11 13 16 18 20 21 22 24 15 6 10 9 10 3 6 3 3 8 3 3 2 5 3 2 2 4 2 5 9 6 7 5 5 8 11 9 11
6 7 5 4 5 5 6 7 7 8 10 12 15 18 21 21 23 19 5 7 3 4 8 7 5 4 5 2 2 0 4 0 1 4 5 5 6 13 7 6 5 5 9 11 10 8 8
5 6 6 2 4 5 5 6 6 8 9 12 15 17 20 23 23 4 8 6 5 1 2 6 2 2 2 3 3 2 5 5 3 3 5 4 8 9 3 3 7 5 7 7 12 8 3
14 13 11 8 7 7 8 8 7 9 11 12 14 16 19 24 6 7 4 3 4 4 3 1 1 1 2 2 0 0 1 2 5 4 5 6 6 6 8 6 7 14 5 6 9 8 7
15 15 15 14 14 13 12 10 8 9 11 12 14 16 18 11 3 4 5 7 2 4 4 1 1 1 3 1 3 4 2 2 4 6 2 7 9 12 9 8 5 9 4 4 4 7 7
14 14 14 14 14 12 11 10 9 9 10 12 13 14 17 3 3 4 8 9 4 3 2 2 3 1 1 3 3 3 1 3 5 3 5 7 5 3 5 7 9 9 10 7 4 1 4
13 14 14 14 14 14 14 13 12 12 12 12 14 13 10 6 4 10 10 4 5 4 2 3 2 6 6 5 6 2 3 5 2 8 4 5 7 7 13 7 6 12 9 6 5 2 7
12 12 13 13 14 15 15 16 16 14 13 13 14 12 5 2 6 7 5 5 3 3 4 6 6 8 3 6 5 5 5 5 5 2 4 5 6 4 9 5 4 3 3 4 9 12 15
11 11 12 13 14 15 16 17 18 18 14 12 13 3 2 5 6 4 5 5 2 4 5 8 6 4 3 7 7 10 8 3 5 8 1 5 6 18 17 7 3 5 3 7 5 9 10
9 10 11 13 14 15 16 17 17 18 16 12 3 3 3 7 6 5 6 3 4 5 5 5 4 6 6 9 8 10 4 8 4 11 5 5 11 4 6 6 5 4 5 7 2 4 5
9 10 11 12 13 13 14 16 17 19 19 7 2 4 5 7 4 5 3 0 5 10 10 7 5 5 5 6 4 4 6 5 5 6 6 4 2 6 3 4 10 10 8 3 1 3 4
10 10 10 11 11 12 14 16 18 20 21 6 3 3 5 4 5 1 1 2 2 6 8 4 3 4 2 6 3 3 4 2 3 2 4 3 2 4 7 13 10 3 1 2 3 7 3
10 9 10 11 12 13 14 16 17 16 14 3 3 1 5 6 3 4 6 5 8 8 6 5 5 6 6 4 5 2 4 2 2 3 1 4 2 4 10 7 6 3 4 3 3 2 7
10 11 10 10 11 12 13 15 16 16 14 2 3 3 5 5 2 3 4 4 3 6 3 5 5 6 5 5 4 6 7 5 6 1 3 2 3 8 9 12 5 15 18 7 5 4 5
8 7 8 9 11 12 13 15 17 18 16 3 3 1 4 2 5 4 4 3 3 4 1 3 4 2 6 3 5 5 5 8 7 3 3 5 5 6 13 13 16 18 21 19 12 15 9
8 7 7 8 10 11 13 14 17 19 14 4 3 4 4 2 1 2 1 3 4 4 1 2 4 6 6 4 5 10 6 3 5 4 4 2 5 4 17 16 16 19 18 17 11 11 12
6 6 7 7 8 11 13 15 17 20 10 4 3 1 5 4 3 2 4 4 2 3 3 2 6 6 5 8 9 12 6 6 9 11 12 7 6 2 17 7 6 8 9 7 5 9 8
5 5 5 6 7 9 11 13 15 16 10 2 1 3 4 4 3 4 4 5 7 8 6 6 5 4 2 6 6 6 7 11 15 18 12 9 5 4 9 3 5 9 7 5 4 7 6
6 6 3 4 7 8 9 11 13 15 15 4 3 4 3 1 1 4 6 5 4 5 5 4 3 1 4 5 4 6 5 5 7 9 6 12 6 4 4 3 7 8 8 4 2 7 7
6 6 5 4 7 8 8 9 10 13 15 4 2 1 3 5 4 3 3 3 1 3 6 3 1 3 5 2 1 2 3 3 6 6 5 4 4 4 2 3 5 1 1 3 1 3 2
7 8 9 9 7 7 7 8 9 11 14 4 1 3 4 2 4 4 1 1 2 2 2 5 4 3 3 2 1 3 5 5 5 4 2 1 2 6 2 3 7 9 4 0 2 5 3
10 10 10 10 9 9 8 8 8 9 11 5 2 2 4 2 6 3 3 3 4 1 3 4 6 5 3 1 2 4 3 3 4 6 6 8 3 3 2 3 7 5 0 3 5 1 3
11 11 10 10 10 9 9 8 8 8 9 6 3 3 2 3 6 2 6 11 7 9 3 2 6 1 3 3 3 3 5 5 8 6 2 4 3 3 7 7 4 5 5 5 2 2 1
Wind_Direction
356 0 357 5 2 360 359 356 352 349 348 349 344 340 336 333 329 326 326 324 321 319 325 324 332 346 354 61 77 188 215 244 260 271 288 1 349 333 309 337 349 250 272 300 305 298 253
340 347 353 357 358 359 358 356 352 350 348 346 345 344 340 336 330 327 327 320 320 315 321 317 328 330 18 90 303 148 222 255 344 329 321 351 328 319 283 295 292 291 317 296 289 273 250
328 337 345 352 353 355 358 356 353 353 352 349 348 344 340 337 333 328 323 317 314 305 309 306 328 321 34 126 6 64 275 147 352 0 352 15 7 45 331 312 312 281 310 307 267 250 228
305 325 343 350 353 355 355 352 353 354 352 350 346 343 340 336 333 329 324 319 315 289 291 295 324 335 92 318 335 340 311 270 215 266 219 305 325 285 208 281 335 277 59 320 294 86 238
312 318 337 349 349 351 350 350 353 355 352 349 345 341 338 335 331 329 325 325 319 294 220 290 339 50 71 357 40 328 2 352 306 240 256 296 55 233 337 117 346 297 241 267 326 231 144
343 309 321 336 347 349 347 348 352 356 353 349 343 338 335 334 333 331 327 329 49 43 169 244 274 57 18 21 358 325 290 318 322 338 299 263 264 17 346 70 260 293 299 284 270 283 307
345 334 317 331 343 344 337 339 349 355 354 347 341 337 334 333 334 332 338 12 11 360 29 348 285 293 344 309 248 294 351 352 262 290 243 222 101 238 244 226 232 279 298 297 281 288 290
345 348 341 330 339 337 332 335 350 356 353 346 342 337 333 331 330 333 351 64 110 204 324 301 276 260 245 99 286 88 13 247 209 274 316 355 238 242 223 248 280 298 286 275 284 266 287
351 335 321 317 339 328 322 330 352 356 353 348 341 337 331 328 323 33 83 125 193 131 216 291 254 321 285 10 24 358 32 331 247 292 296 212 253 320 267 299 283 247 255 276 278 320 233
47 39 37 22 13 359 358 6 24 4 351 347 341 335 333 331 43 330 68 2 113 98 54 193 198 209 262 266 272 19 36 99 331 291 297 265 301 0 331 288 272 284 263 326 341 355 299
52 50 49 49 48 46 46 43 19 351 346 341 339 335 335 341 274 10 308 317 199 58 24 108 131 237 266 236 213 236 179 90 222 251 317 259 330 301 301 287 287 282 340 290 281 298 314
59 56 53 49 46 39 32 24 5 350 351 339 335 336 339 9 312 311 316 305 80 28 298 94 143 265 349 239 241 129 228 8 258 282 209 235 288 319 351 2 11 339 354 315 295 224 274
55 50 46 41 34 28 20 9 358 350 342 332 328 330 330 310 312 315 322 20 32 117 133 32 46 14 351 277 303 21 43 10 344 328 3 308 262 107 29 359 8 31 15 324 321 343 259
58 54 47 39 33 25 19 14 3 348 336 325 318 320 297 344 327 329 8 41 126 42 9 14 358 318 289 4 15 11 11 334 5 45 338 354 343 31 9 69 312 307 156 173 279 293 292
63 57 50 42 34 27 21 17 10 1 347 335 315 343 347 317 331 23 51 54 313 4 351 349 335 7 337 39 359 15 354 280 31 27 29 334 256 339 347 14 45 308 235 237 252 274 280
67 62 55 46 38 30 22 16 10 4 355 351 346 357 353 314 346 38 68 263 83 37 1 356 19 29 359 347 359 17 324 25 23 27 18 343 304 31 11 326 268 235 305 318 304 305 259
81 69 60 51 42 34 25 16 11 4 348 344 9 46 276 330 48 48 126 204 73 46 35 22 15 326 343 6 9 339 276 47 24 352 6 349 224 310 342 24 313 313 304 282 84 268 291
85 73 62 53 43 32 21 16 11 8 348 55 11 44 287 17 42 16 39 60 22 26 25 331 321 334 326 2 313 338 293 67 350 20 3 18 275 279 273 283 278 246 347 33 140 285 257
86 82 68 56 45 36 26 16 8 9 26 348 19 157 315 72 79 358 333 34 53 21 20 30 340 27 14 349 320 289 345 154 99 63 50 338 328 335 320 335 355 357 296 254 199 160 219
91 82 69 60 49 40 29 18 7 2 1 75 55 36 344 36 48 73 28 1 16 22 47 17 342 5 359 344 311 296 307 304 352 292 152 33 223 183 249 253 259 296 292 248 201 217 253
100 87 73 62 54 44 31 19 6 355 350 84 41 77 170 359 19 54 26 7 348 332 88 25 328 268 316 302 306 267 320 323 328 309 74 151 234 242 254 265 278 275 279 286 225 240 236
103 92 81 69 57 45 34 23 7 357 350 71 103 95 6 86 44 31 301 221 225 269 46 327 281 348 351 300 269 303 291 250 243 330 20 252 266 288 282 276 267 276 279 267 255 244 241
127 112 106 83 63 50 40 30 18 8 14 62 325 23 102 161 164 111 222 213 325 25 301 285 297 301 284 285 291 286 232 225 244 266 267 210 257 225 276 270 306 308 259 254 264 269 236
131 135 127 106 75 56 46 38 30 21 30 130 265 81 85 256 145 208 269 274 271 264 242 263 275 258 274 323 325 297 258 255 257 258 234 238 209 233 281 285 246 245 298 241 264 277 289
92 97 116 116 107 71 54 42 29 21 14 58 360 68 78 268 204 314 326 326 358 351 352 338 43 170 313 36 358 322 311 340 269 240 233 218 204 252 245 229 294 291 286 187 175 290 290
104 98 96 109 114 89 68 50 37 23 17 67 24 81 87 115 268 353 333 341 327 351 342 320 33 28 54 56 22 251 273 312 284 320 11 110 141 203 196 228 249 233 228 59 78 308 352
125 111 104 100 97 88 80 59 46 29 20 57 7 58 78 91 292 31 84 201 310 340 220 298 321 332 56 72 232 220 246 232 262 227 214 25 243 223 239 279 270 268 182 211 87 238 353
111 107 103 95 88 83 79 67 50 31 19 49 283 43 113 162 279 269 337 4 348 98 152 274 19 351 44 239 175 281 288 342 312 338 257 186 197 216 148 221 268 248 261 206 221 281 18
108 101 96 91 82 75 73 67 53 47 24 41 52 330 57 125 241 247 256 262 235 237 194 250 197 295 235 66 352 317 309 298 277 276 100 298 242 268 184 215 263 293 291 280 200 161 42